Time,TemperatureF,DewpointF,PressureIn,WindDirection,WindDirectionDegrees,WindSpeedMPH,WindSpeedGustMPH,Humidity,HourlyPrecipIn,Conditions,Clouds,dailyrainin,SoftwareType,DateUTC
2013-05-19 00:13:00,58.5,57.0,30.16,ESE,107,2.0,2.0,95,0.00,,,0.00,weatherlink.com 1.10,2013-05-19 04:13:00,
2013-05-19 00:28:00,58.5,57.0,30.17,ESE,107,0.0,2.0,96,0.00,,,0.00,weatherlink.com 1.10,2013-05-19 04:28:00,
2013-05-19 00:43:00,58.3,57.0,30.16,ESE,106,0.0,3.0,96,0.00,,,0.00,weatherlink.com 1.10,2013-05-19 04:43:00,
2013-05-19 00:58:00,58.3,57.0,30.16,ESE,106,0.0,2.0,96,0.00,,,0.00,weatherlink.com 1.10,2013-05-19 04:58:00,
2013-05-19 01:13:00,58.2,57.0,30.16,NNE,15,2.0,2.0,96,0.00,,,0.00,weatherlink.com 1.10,2013-05-19 05:13:00,
2013-05-19 01:28:00,58.1,57.0,30.16,NE,51,0.0,2.0,96,0.00,,,0.00,weatherlink.com 1.10,2013-05-19 05:28:00,
2013-05-19 01:43:00,58.1,57.0,30.16,NE,51,0.0,3.0,96,0.00,,,0.00,weatherlink.com 1.10,2013-05-19 05:43:00,
2013-05-19 01:58:00,58.0,57.0,30.15,NE,51,0.0,2.0,96,0.00,,,0.00,weatherlink.com 1.10,2013-05-19 05:58:00,
2013-05-19 02:13:00,57.9,57.0,30.15,NE,51,0.0,2.0,96,0.00,,,0.00,weatherlink.com 1.10,2013-05-19 06:13:00,
2013-05-19 02:28:00,57.6,57.0,30.15,NE,51,0.0,3.0,97,0.00,,,0.00,weatherlink.com 1.10,2013-05-19 06:28:00,
2013-05-19 02:43:00,57.5,57.0,30.15,NE,51,1.0,3.0,97,0.00,,,0.00,weatherlink.com 1.10,2013-05-19 06:43:00,
2013-05-19 02:58:00,57.4,57.0,30.14,NE,51,0.0,2.0,97,0.00,,,0.00,weatherlink.com 1.10,2013-05-19 06:58:00,
2013-05-19 03:13:00,57.4,57.0,30.14,SE,124,1.0,3.0,97,0.00,,,0.00,weatherlink.com 1.10,2013-05-19 07:13:00,
2013-05-19 03:28:00,57.4,57.0,30.14,SE,124,0.0,2.0,97,0.00,,,0.00,weatherlink.com 1.10,2013-05-19 07:28:00,
2013-05-19 03:43:00,57.3,57.0,30.14,South,184,0.0,3.0,97,0.00,,,0.00,weatherlink.com 1.10,2013-05-19 07:43:00,
2013-05-19 03:58:00,57.4,57.0,30.13,South,175,0.0,2.0,97,0.00,,,0.00,weatherlink.com 1.10,2013-05-19 07:58:00,
2013-05-19 04:13:00,57.3,57.0,30.13,South,175,0.0,2.0,97,0.00,,,0.00,weatherlink.com 1.10,2013-05-19 08:13:00,
2013-05-19 04:28:00,57.3,57.0,30.13,South,175,1.0,2.0,98,0.00,,,0.00,weatherlink.com 1.10,2013-05-19 08:28:00,
2013-05-19 04:43:00,57.2,57.0,30.13,SE,127,1.0,2.0,98,0.00,,,0.00,weatherlink.com 1.10,2013-05-19 08:43:00,
2013-05-19 04:58:00,57.1,57.0,30.14,SE,127,0.0,2.0,98,0.00,,,0.00,weatherlink.com 1.10,2013-05-19 08:58:00,
2013-05-19 05:13:00,57.1,57.0,30.13,SE,127,1.0,2.0,98,0.00,,,0.00,weatherlink.com 1.10,2013-05-19 09:13:00,
2013-05-19 05:28:00,57.0,57.0,30.13,SE,127,0.0,2.0,98,0.00,,,0.00,weatherlink.com 1.10,2013-05-19 09:28:00,
2013-05-19 05:43:00,57.0,57.0,30.12,SE,127,0.0,2.0,98,0.00,,,0.00,weatherlink.com 1.10,2013-05-19 09:43:00,
2013-05-19 05:58:00,57.0,57.0,30.13,SE,127,1.0,2.0,98,0.00,,,0.00,weatherlink.com 1.10,2013-05-19 09:58:00,
2013-05-19 06:13:00,57.0,57.0,30.14,SE,127,0.0,2.0,98,0.00,,,0.00,weatherlink.com 1.10,2013-05-19 10:13:00,
2013-05-19 06:28:00,57.0,57.0,30.14,SE,127,2.0,2.0,98,0.00,,,0.00,weatherlink.com 1.10,2013-05-19 10:28:00,
2013-05-19 06:43:00,57.1,57.0,30.14,SE,127,0.0,2.0,98,0.00,,,0.00,weatherlink.com 1.10,2013-05-19 10:43:00,
2013-05-19 06:58:00,57.2,57.0,30.15,South,173,0.0,3.0,98,0.00,,,0.00,weatherlink.com 1.10,2013-05-19 10:58:00,
2013-05-19 07:13:00,57.3,57.0,30.16,South,174,0.0,2.0,98,0.00,,,0.00,weatherlink.com 1.10,2013-05-19 11:13:00,
2013-05-19 07:28:00,57.3,57.0,30.16,South,173,0.0,1.0,98,0.00,,,0.00,weatherlink.com 1.10,2013-05-19 11:28:00,
2013-05-19 07:43:00,57.3,57.0,30.16,South,170,0.0,2.0,98,0.00,,,0.00,weatherlink.com 1.10,2013-05-19 11:43:00,
2013-05-19 07:58:00,57.5,57.0,30.16,South,170,0.0,2.0,98,0.00,,,0.00,weatherlink.com 1.10,2013-05-19 11:58:00,
2013-05-19 08:13:00,57.6,57.0,30.16,ENE,67,0.0,3.0,98,0.00,,,0.00,weatherlink.com 1.10,2013-05-19 12:13:00,
2013-05-19 08:28:00,57.7,57.0,30.17,ENE,67,1.0,1.0,98,0.00,,,0.00,weatherlink.com 1.10,2013-05-19 12:28:00,
2013-05-19 08:43:00,57.8,57.0,30.17,ENE,67,0.0,2.0,98,0.00,,,0.00,weatherlink.com 1.10,2013-05-19 12:43:00,
2013-05-19 08:58:00,57.9,57.0,30.17,ENE,67,0.0,2.0,98,0.00,,,0.00,weatherlink.com 1.10,2013-05-19 12:58:00,
2013-05-19 09:13:00,58.0,58.0,30.18,NE,41,0.0,2.0,98,0.00,,,0.00,weatherlink.com 1.10,2013-05-19 13:13:00,
2013-05-19 09:28:00,58.0,58.0,30.17,NE,42,1.0,3.0,98,0.00,,,0.00,weatherlink.com 1.10,2013-05-19 13:28:00,
2013-05-19 09:43:00,58.2,58.0,30.17,ENE,57,0.0,1.0,98,0.00,,,0.00,weatherlink.com 1.10,2013-05-19 13:43:00,
2013-05-19 09:59:00,58.6,58.0,30.17,ENE,57,0.0,2.0,98,0.00,,,0.00,weatherlink.com 1.10,2013-05-19 13:59:00,
2013-05-19 10:14:00,58.9,58.0,30.17,ENE,57,1.0,2.0,98,0.00,,,0.00,weatherlink.com 1.10,2013-05-19 14:14:00,
2013-05-19 10:29:00,59.1,59.0,30.16,NE,55,1.0,2.0,98,0.00,,,0.00,weatherlink.com 1.10,2013-05-19 14:29:00,
2013-05-19 10:44:00,59.5,59.0,30.16,SSE,166,1.0,3.0,98,0.00,,,0.00,weatherlink.com 1.10,2013-05-19 14:44:00,
2013-05-19 10:59:00,59.6,59.0,30.17,NE,45,0.0,3.0,98,0.00,,,0.00,weatherlink.com 1.10,2013-05-19 14:59:00,
2013-05-19 11:14:00,59.8,59.0,30.17,NE,45,0.0,2.0,98,0.00,,,0.00,weatherlink.com 1.10,2013-05-19 15:14:00,
2013-05-19 11:29:00,60.2,60.0,30.17,NE,45,0.0,1.0,98,0.00,,,0.00,weatherlink.com 1.10,2013-05-19 15:29:00,
2013-05-19 11:44:00,60.5,60.0,30.17,NE,45,0.0,0.0,97,0.01,,,0.01,weatherlink.com 1.10,2013-05-19 15:44:00,
2013-05-19 11:59:00,60.8,60.0,30.16,NE,45,0.0,0.0,98,0.02,,,0.02,weatherlink.com 1.10,2013-05-19 15:59:00,
2013-05-19 12:14:00,61.1,60.0,30.17,NE,45,0.0,0.0,97,0.02,,,0.02,weatherlink.com 1.10,2013-05-19 16:14:00,
2013-05-19 12:29:00,61.3,61.0,30.16,East,84,1.0,1.0,97,0.02,,,0.02,weatherlink.com 1.10,2013-05-19 16:29:00,
2013-05-19 12:44:00,61.4,61.0,30.15,East,84,1.0,2.0,97,0.03,,,0.04,weatherlink.com 1.10,2013-05-19 16:44:00,
2013-05-19 12:59:00,62.0,61.0,30.14,East,84,1.0,1.0,97,0.02,,,0.04,weatherlink.com 1.10,2013-05-19 16:59:00,
2013-05-19 13:14:00,62.3,62.0,30.14,East,84,0.0,2.0,97,0.02,,,0.04,weatherlink.com 1.10,2013-05-19 17:14:00,
2013-05-19 13:29:00,62.7,62.0,30.13,ENE,76,0.0,1.0,97,0.02,,,0.04,weatherlink.com 1.10,2013-05-19 17:29:00,
2013-05-19 13:44:00,63.6,63.0,30.12,ENE,76,1.0,2.0,97,0.00,,,0.04,weatherlink.com 1.10,2013-05-19 17:44:00,
2013-05-19 13:59:00,64.8,63.0,30.12,SE,132,1.0,3.0,95,0.00,,,0.04,weatherlink.com 1.10,2013-05-19 17:59:00,
2013-05-19 14:14:00,65.1,63.0,30.11,SSE,151,0.0,3.0,93,0.00,,,0.04,weatherlink.com 1.10,2013-05-19 18:14:00,
2013-05-19 14:29:00,65.8,64.0,30.11,SE,125,1.0,2.0,92,0.00,,,0.04,weatherlink.com 1.10,2013-05-19 18:29:00,
2013-05-19 14:44:00,66.7,64.0,30.10,ESE,109,2.0,3.0,91,0.00,,,0.04,weatherlink.com 1.10,2013-05-19 18:44:00,
2013-05-19 14:59:00,67.2,65.0,30.09,ESE,109,1.0,2.0,91,0.00,,,0.04,weatherlink.com 1.10,2013-05-19 18:59:00,
2013-05-19 15:14:00,67.7,64.0,30.09,ESE,108,0.0,2.0,89,0.00,,,0.04,weatherlink.com 1.10,2013-05-19 19:14:00,
2013-05-19 15:29:00,67.8,64.0,30.08,SSE,150,1.0,3.0,88,0.00,,,0.04,weatherlink.com 1.10,2013-05-19 19:29:00,
2013-05-19 15:44:00,67.9,64.0,30.08,South,170,2.0,3.0,88,0.00,,,0.04,weatherlink.com 1.10,2013-05-19 19:44:00,
2013-05-19 15:59:00,67.5,64.0,30.08,West,278,2.0,2.0,88,0.00,,,0.04,weatherlink.com 1.10,2013-05-19 19:59:00,
2013-05-19 16:14:00,67.6,64.0,30.08,SSE,161,1.0,3.0,88,0.00,,,0.04,weatherlink.com 1.10,2013-05-19 20:14:00,
2013-05-19 16:29:00,70.0,66.0,30.08,South,171,3.0,5.0,87,0.00,,,0.04,weatherlink.com 1.10,2013-05-19 20:29:00,
2013-05-19 16:44:00,69.3,65.0,30.08,South,174,1.0,4.0,85,0.00,,,0.04,weatherlink.com 1.10,2013-05-19 20:44:00,
2013-05-19 16:59:00,69.7,65.0,30.07,South,183,1.0,6.0,84,0.00,,,0.04,weatherlink.com 1.10,2013-05-19 20:59:00,
2013-05-19 17:14:00,68.8,64.0,30.07,SSE,150,1.0,5.0,85,0.00,,,0.04,weatherlink.com 1.10,2013-05-19 21:14:00,
2013-05-19 17:29:00,68.4,64.0,30.07,SSE,154,0.0,2.0,87,0.00,,,0.04,weatherlink.com 1.10,2013-05-19 21:29:00,
2013-05-19 17:44:00,68.1,64.0,30.07,SSW,202,1.0,3.0,87,0.00,,,0.04,weatherlink.com 1.10,2013-05-19 21:44:00,
2013-05-19 17:59:00,68.1,64.0,30.07,South,190,1.0,3.0,86,0.00,,,0.04,weatherlink.com 1.10,2013-05-19 21:59:00,
2013-05-19 18:14:00,67.2,63.0,30.07,South,187,1.0,3.0,87,0.00,,,0.04,weatherlink.com 1.10,2013-05-19 22:14:00,
2013-05-19 18:29:00,66.8,63.0,30.06,South,187,0.0,3.0,88,0.00,,,0.04,weatherlink.com 1.10,2013-05-19 22:29:00,
2013-05-19 18:44:00,66.6,63.0,30.06,South,186,2.0,3.0,88,0.00,,,0.04,weatherlink.com 1.10,2013-05-19 22:44:00,
2013-05-19 18:59:00,66.7,63.0,30.06,South,186,2.0,2.0,87,0.00,,,0.04,weatherlink.com 1.10,2013-05-19 22:59:00,
2013-05-19 19:14:00,66.7,63.0,30.05,South,186,0.0,2.0,88,0.00,,,0.04,weatherlink.com 1.10,2013-05-19 23:14:00,
2013-05-19 19:29:00,66.6,63.0,30.06,South,186,0.0,3.0,88,0.00,,,0.04,weatherlink.com 1.10,2013-05-19 23:29:00,
2013-05-19 19:44:00,66.4,63.0,30.06,South,186,1.0,3.0,88,0.00,,,0.04,weatherlink.com 1.10,2013-05-19 23:44:00,
2013-05-19 19:59:00,66.3,63.0,30.06,South,186,2.0,3.0,88,0.00,,,0.04,weatherlink.com 1.10,2013-05-19 23:59:00,
2013-05-19 20:15:00,66.1,63.0,30.07,South,186,2.0,2.0,89,0.00,,,0.04,weatherlink.com 1.10,2013-05-20 00:15:00,
2013-05-19 20:29:00,66.0,63.0,30.08,South,186,0.0,2.0,89,0.00,,,0.04,weatherlink.com 1.10,2013-05-20 00:29:00,
2013-05-19 20:44:00,65.9,63.0,30.08,South,186,0.0,0.0,90,0.00,,,0.04,weatherlink.com 1.10,2013-05-20 00:44:00,
2013-05-19 21:00:00,65.8,63.0,30.08,South,186,0.0,0.0,90,0.00,,,0.04,weatherlink.com 1.10,2013-05-20 01:00:00,
2013-05-19 21:15:00,65.7,63.0,30.09,South,186,0.0,1.0,91,0.00,,,0.04,weatherlink.com 1.10,2013-05-20 01:15:00,
2013-05-19 21:29:00,65.5,63.0,30.09,South,186,0.0,0.0,91,0.00,,,0.04,weatherlink.com 1.10,2013-05-20 01:29:00,
2013-05-19 21:45:00,65.5,63.0,30.09,South,186,0.0,0.0,91,0.00,,,0.04,weatherlink.com 1.10,2013-05-20 01:45:00,
2013-05-19 22:00:00,65.3,63.0,30.09,South,186,0.0,0.0,92,0.00,,,0.04,weatherlink.com 1.10,2013-05-20 02:00:00,
2013-05-19 22:15:00,65.2,63.0,30.10,South,186,0.0,0.0,93,0.00,,,0.04,weatherlink.com 1.10,2013-05-20 02:15:00,
2013-05-19 22:30:00,65.1,63.0,30.09,South,186,0.0,0.0,93,0.00,,,0.04,weatherlink.com 1.10,2013-05-20 02:30:00,
2013-05-19 22:45:00,65.0,63.0,30.10,South,186,0.0,0.0,93,0.00,,,0.04,weatherlink.com 1.10,2013-05-20 02:45:00,
2013-05-19 23:00:00,65.0,63.0,30.09,South,186,0.0,0.0,93,0.00,,,0.04,weatherlink.com 1.10,2013-05-20 03:00:00,
2013-05-19 23:15:00,65.0,63.0,30.09,South,186,0.0,0.0,93,0.00,,,0.04,weatherlink.com 1.10,2013-05-20 03:15:00,
2013-05-19 23:30:00,65.0,63.0,30.09,South,186,0.0,0.0,93,0.00,,,0.04,weatherlink.com 1.10,2013-05-20 03:30:00,
2013-05-19 23:45:00,65.0,63.0,30.09,South,186,0.0,0.0,93,0.00,,,0.04,weatherlink.com 1.10,2013-05-20 03:45:00,